Location: Glendale
(37.4556°N, 88.6714°W)
Time: 01:23:34
(UTC+00:00)

NOAA 11 - Pass Details

Date: 08 December 2019
Orbit: 833 x 850 km, 98.4° (Epoch: 28 January)

Event Time Altitude Azimuth Distance (km) Brightness Sun altitude
Rises 00:30:11 0° 158° (SSE) 3,372 7.2 -22.0°
Reaches altitude 10° 00:32:33 10° 156° (SSE) 2,444 6.5 -22.4°
Maximum altitude 00:37:55 69° 74° (ENE) 900 4.0 -23.5°
Drops below altitude 10° 00:43:22 10° 352° (N) 2,470 6.6 -24.5°
Sets 00:45:45 0° 351° (N) 3,411 7.4 -25.0°
